User: anonymous   Login
Location: house
(32.4460°N, 85.5928°W)
Time: 21:58:13
(UTC-05:00)
Language:

ZACube-1 - Orbit

View from above orbital plane
View from above orbital plane
View from above satellite
View from above satellite

Ground track
Ground track

The orbit data is extracted from the following two-line orbital elements,

1 39417U 13066B   19288.67338280  .00000196  00000-0  31001-4 0  9990
2 39417  97.5626 295.4887 0059053   5.3917 354.7919 14.81160973318652
Epoch (UTC): 15 October 2019 16:09:40
Eccentricity: 0.0059053
inclination: 97.5626°
perigee height: 584 km
apogee height: 667 km
right ascension of ascending node: 295.4887°
argument of perigee: 5.3917°
revolutions per day: 14.81160973
mean anomaly at epoch: 354.7919°
orbit number at epoch: 31865

The dashed part of the orbit path shows where the satellite is in the earth's shadow,  

DLR